{"data":{"norad_id":43762,"epoch":"2026-09-20T01:37:55.288128Z","epoch_age_seconds":92190,"freshness":"FRESH","line1":"1 43762U 18099E   26263.06800102  .00002816  00000+0  15700-3 0  9997","line2":"2 43762  97.3995 310.2638 0003613  34.3411 325.8054 15.14375436427221","mean_motion":15.14375436,"eccentricity":0.0003613,"inclination_deg":97.3995,"raan_deg":310.2638,"arg_perigee_deg":34.3411,"mean_anomaly_deg":325.8054,"bstar":0.000157,"rev_number":42722,"period_min":95.088705598893,"perigee_km":520.38199878663,"apogee_km":525.36867029957,"semimajor_km":6901.0123345431,"source":"CELESTRAK","updated_at":"2026-09-20T09:00:14.400859Z"}}